SCC545 KSMS-KCAE

Flight info

Callsign SCC545
Flight time N/A
Altitude 3000
Route HAVPI DDATA BWAGS UXPIG
Aircraft SF34/M-V/N

Departure

Time 2026-04-14 21:45
Airport Sumter Airport (KSMS)

Arrival

Time N/A
Airport Columbia Metropolitan Airport (KCAE)
Time Latitude Longitude Altitude Speed Heading
2026-04-14 21:34 33.99226 -80.36240 195 ft 0 kts 93°
2026-04-14 21:41 33.99226 -80.36239 195 ft 0 kts 91°
2026-04-14 21:42 33.99240 -80.36232 193 ft 7 kts 359°
2026-04-14 21:42 33.99316 -80.36236 186 ft 10 kts
2026-04-14 21:42 33.99369 -80.36199 186 ft 18 kts 45°
2026-04-14 21:42 33.99462 -80.36093 191 ft 18 kts 42°
2026-04-14 21:43 33.99559 -80.35984 185 ft 6 kts 43°
2026-04-14 21:43 33.99620 -80.35915 197 ft 13 kts 43°
2026-04-14 21:43 33.99719 -80.35803 185 ft 27 kts 43°
2026-04-14 21:43 33.99799 -80.35713 187 ft 20 kts 43°
2026-04-14 21:44 33.99887 -80.35705 189 ft 21 kts 346°
2026-04-14 21:44 33.99917 -80.35761 185 ft 7 kts 216°
2026-04-14 21:44 33.99912 -80.35766 189 ft 0 kts 223°
2026-04-14 21:44 33.99804 -80.35880 188 ft 61 kts 222°
2026-04-14 21:45 33.99321 -80.36446 263 ft 127 kts 223°
2026-04-14 21:45 33.98579 -80.37302 756 ft 165 kts 221°
2026-04-14 21:45 33.97604 -80.38240 1391 ft 190 kts 206°
2026-04-14 21:45 33.96304 -80.38462 2020 ft 196 kts 170°
2026-04-14 21:46 33.95168 -80.37611 2651 ft 188 kts 130°
2026-04-14 21:46 33.94822 -80.36158 3273 ft 189 kts 86°
2026-04-14 21:46 33.95390 -80.34723 3898 ft 198 kts 47°
2026-04-14 21:46 33.96409 -80.33545 4539 ft 204 kts 42°
2026-04-14 21:47 33.97503 -80.32424 5180 ft 207 kts 28°
2026-04-14 21:47 33.98856 -80.32080 5804 ft 203 kts 348°
2026-04-14 21:47 34.00137 -80.32806 6158 ft 212 kts 315°
2026-04-14 21:47 34.00895 -80.34379 6179 ft 226 kts 282°
2026-04-14 21:48 34.00808 -80.36245 6183 ft 221 kts 251°
2026-04-14 21:48 33.99922 -80.37722 6185 ft 218 kts 225°
2026-04-14 21:48 33.98769 -80.38890 6186 ft 218 kts 221°
2026-04-14 21:48 33.97781 -80.40227 6179 ft 213 kts 246°
2026-04-14 21:49 33.97499 -80.41956 6165 ft 209 kts 264°
2026-04-14 21:49 33.97109 -80.43646 6166 ft 211 kts 248°
2026-04-14 21:49 33.96461 -80.45218 6217 ft 209 kts 244°
2026-04-14 21:49 33.95818 -80.46772 6639 ft 211 kts 247°
2026-04-14 21:50 33.95210 -80.48428 7047 ft 215 kts 248°
2026-04-14 21:50 33.94585 -80.50055 7448 ft 218 kts 246°
2026-04-14 21:50 33.93944 -80.51718 7865 ft 220 kts 247°
2026-04-14 21:50 33.93305 -80.53406 8283 ft 221 kts 247°
2026-04-14 21:51 33.92658 -80.55091 8702 ft 223 kts 247°
2026-04-14 21:51 33.92010 -80.56783 9128 ft 224 kts 247°
2026-04-14 21:51 33.91352 -80.58502 9563 ft 226 kts 246°
2026-04-14 21:51 33.90898 -80.60293 9989 ft 226 kts 268°
2026-04-14 21:52 33.91286 -80.62154 10131 ft 238 kts 299°
2026-04-14 21:52 33.92464 -80.63591 10164 ft 247 kts 321°
2026-04-14 21:52 33.93632 -80.65044 10164 ft 238 kts 300°
2026-04-14 21:52 33.94338 -80.66834 10167 ft 236 kts 292°
2026-04-14 21:53 33.95041 -80.68644 9911 ft 238 kts 297°
2026-04-14 21:53 33.96046 -80.70165 9555 ft 235 kts 314°
2026-04-14 21:53 33.97235 -80.71496 9201 ft 233 kts 314°
2026-04-14 21:53 33.98341 -80.72923 8850 ft 232 kts 309°
2026-04-14 21:54 33.99387 -80.74404 8500 ft 231 kts 310°
2026-04-14 21:54 34.00410 -80.75889 8151 ft 228 kts 298°
2026-04-14 21:54 34.00767 -80.77717 7809 ft 227 kts 267°
2026-04-14 21:54 34.00577 -80.79563 7378 ft 227 kts 267°
2026-04-14 21:55 34.00686 -80.81469 6882 ft 228 kts 279°
2026-04-14 21:55 34.00961 -80.83351 6377 ft 227 kts 278°
2026-04-14 21:55 34.00780 -80.85219 5849 ft 225 kts 246°
2026-04-14 21:55 33.99797 -80.86630 5332 ft 217 kts 214°
2026-04-14 21:56 33.98491 -80.87193 4814 ft 185 kts 193°
2026-04-14 21:56 33.97324 -80.87447 4333 ft 166 kts 192°
2026-04-14 21:56 33.96055 -80.87717 3948 ft 197 kts 191°
2026-04-14 21:56 33.94675 -80.88013 3562 ft 202 kts 189°
2026-04-14 21:57 33.93293 -80.87776 3182 ft 200 kts 165°
2026-04-14 21:57 33.91998 -80.87196 2802 ft 193 kts 162°
2026-04-14 21:57 33.90740 -80.86620 2415 ft 194 kts 163°
2026-04-14 21:57 33.89458 -80.86467 2210 ft 182 kts 196°
2026-04-14 21:58 33.88426 -80.87243 2169 ft 177 kts 233°
2026-04-14 21:58 33.88028 -80.88608 2168 ft 175 kts 267°
2026-04-14 21:58 33.88452 -80.89961 2161 ft 181 kts 308°
2026-04-14 21:58 33.89350 -80.91000 2166 ft 177 kts 300°
2026-04-14 21:59 33.89736 -80.92399 2168 ft 179 kts 280°
2026-04-14 21:59 33.90036 -80.93780 2179 ft 170 kts 283°
2026-04-14 21:59 33.90341 -80.95168 2174 ft 171 kts 282°
2026-04-14 21:59 33.90649 -80.96559 2167 ft 171 kts 282°
2026-04-14 22:00 33.90956 -80.97933 2170 ft 169 kts 282°
2026-04-14 22:00 33.91252 -80.99308 2109 ft 167 kts 280°
2026-04-14 22:00 33.91528 -81.00569 1929 ft 159 kts 281°
2026-04-14 22:00 33.91816 -81.01867 1745 ft 159 kts 281°
2026-04-14 22:01 33.92096 -81.03130 1587 ft 156 kts 281°
2026-04-14 22:01 33.92362 -81.04369 1410 ft 146 kts 283°
2026-04-14 22:01 33.92607 -81.05503 1237 ft 135 kts 278°
2026-04-14 22:01 33.92851 -81.06571 1070 ft 131 kts 282°
2026-04-14 22:02 33.93082 -81.07655 880 ft 137 kts 282°
2026-04-14 22:02 33.93300 -81.08742 634 ft 129 kts 284°
2026-04-14 22:02 33.93526 -81.09734 430 ft 121 kts 285°
2026-04-14 22:02 33.93791 -81.10638 348 ft 108 kts 275°
2026-04-14 22:03 33.93914 -81.11423 327 ft 84 kts 281°